Printer-friendly version

IAU Minor Planet Center

Minor Planet Center

MPEC 2001-B32: 2001 BE16

The following Minor Planet Electronic Circular may be linked-to from your own Web pages, but must not otherwise be redistributed electronically.


Read MPEC 2001-B31 Read MPEC 2001-B33


M.P.E.C. 2001-B32                                Issued 2001 Jan. 23, 23:36 UT

     The Minor Planet Electronic Circulars contain information on unusual
         minor planets and routine data on comets.  They are published
   on behalf of Commission 20 of the International Astronomical Union by the
          Minor Planet Center, Smithsonian Astrophysical Observatory,
                          Cambridge, MA 02138, U.S.A.

             Prepared using the Tamkin Foundation Computer Network

                              MPC@CFA.HARVARD.EDU
          URL http://cfa-www.harvard.edu/iau/mpc.html  ISSN 1523-6714

                                   2001 BE16

Observations:
     K01B16E* C2001 01 21.25256 07 06 50.82 +08 13 39.7          18.2        704
     K01B16E  C2001 01 21.26748 07 06 45.59 +08 15 28.7          17.9        704
     K01B16E  C2001 01 21.28277 07 06 40.19 +08 17 20.1          17.6        704
     K01B16E  C2001 01 21.29770 07 06 34.88 +08 19 10.1          17.4        704
     K01B16E  C2001 01 21.31332 07 06 29.38 +08 21 04.5          17.0        704
     K01B16E  C2001 01 22.82321 06 57 36.69 +11 32 08.5          17.8 R      046
     K01B16E  C2001 01 22.82389 06 57 36.40 +11 32 13.5                      046
     K01B16E  C2001 01 22.82465 06 57 36.16 +11 32 19.3                      046
     K01B16E  C2001 01 22.82556 06 57 35.82 +11 32 26.8                      046
     K01B16E  C2001 01 22.82691 06 57 35.33 +11 32 36.7                      046
     K01B16E  C2001 01 22.82753 06 57 35.06 +11 32 42.3          18.0 R      046
     K01B16E  C2001 01 23.79942 06 51 29.73 +13 42 08.2                      046
     K01B16E  C2001 01 23.80027 06 51 29.29 +13 42 16.2          17.5 R      046
     K01B16E  C2001 01 23.80098 06 51 29.12 +13 42 20.4                      046
     K01B16E  C2001 01 23.80166 06 51 28.86 +13 42 26.9                      046
     K01B16E  C2001 01 23.80237 06 51 28.53 +13 42 32.6                      046

Observer details:
046 Klet.  Observers M. Tichy, M. Kocer.  0.57-m f/5.2 reflector + CCD.
704 Lincoln Laboratory ETS, New Mexico.  Observers M. Blythe, F. Shelly,
    M. Bezpalko, R. Huber, L. Manguso, S. Adams.  Measurers J. Stuart,
    R. Sayer, J. B. Evans, H. Viggh.  1.0-m f/2.15 reflector + CCD.

Orbital elements:
2001 BE16
Epoch 2001 Jan. 11.0 TT = JDT 2451920.5                 Spahr
M 283.98791              (2000.0)            P               Q
n   0.74155203     Peri.  108.71590     -0.46648822     +0.72121982
a   1.2088571      Node   122.23532     -0.84601447     -0.53277225
e   0.3873607      Incl.   37.25749     +0.25816322     -0.44271403
P   1.33           H   20.2           G   0.15
From 16 observations 2001 Jan. 21-23.

Ephemeris:
2001 BE16                a,e,i = 1.21, 0.39, 37                  q = 0.7406
Date    TT    R. A. (2000) Decl.     Delta      r     Elong.  Phase     V
2001 01 11    07 51.47   -07 21.3    0.323    1.274   150.3    22.5    19.3
2001 01 21    07 08.27   +07 43.2    0.243    1.215   160.1    16.0    18.4
2001 01 31    05 57.18   +30 59.4    0.215    1.154   137.7    35.1    18.6
2001 02 10    04 19.11   +50 12.1    0.248    1.089   108.1    59.4    19.5
2001 02 20    02 38.16   +58 40.6    0.313    1.024    87.5    74.7    20.3
2001 03 02    01 17.47   +60 53.0    0.386    0.959    73.9    83.3    21.0
2001 03 12    00 18.39   +60 09.9    0.456    0.896    64.3    88.4    21.4

Timothy B. Spahr             (C) Copyright 2001 MPC           M.P.E.C. 2001-B32

Read MPEC 2001-B31 Read MPEC 2001-B33


Our Web policy. Index to the CBAT/MPC/ICQ pages.


Valid HTML 4.01!